Location: Eymir
(36.7333°N, 29.7833°E)
Time: 03:20:24
(UTC+00:00)

Tiangong - Visible Passes

Search period start: 09 March 2026 00:00
Search period end: 19 March 2026 00:00
Orbit: 381 x 391 km, 41.5° (Epoch: 8 March)

Date Brightness Start Highest point End Pass type
(mag) Time Alt. Az. Time Alt. Az. Time Alt. Az.
9 Mar 0.0 03:31:30 10° SSW 03:34:10 24° SSE 03:36:49 10° E visible
10 Mar 0.6 02:34:21 13° SSE 02:35:03 14° SE 02:36:43 10° ESE visible
11 Mar -1.3 03:10:24 20° SW 03:12:13 45° SSE 03:15:18 10° ENE visible
12 Mar 0.3 02:14:01 20° ESE 02:14:01 20° ESE 02:15:38 10° E visible
12 Mar -1.9 03:46:29 10° W 03:49:38 62° NNW 03:52:48 10° ENE visible
13 Mar -2.2 02:49:44 64° SW 02:50:10 83° SSE 02:53:22 10° ENE visible
14 Mar 1.1 01:53:05 15° E 01:53:05 15° E 01:53:46 10° ENE visible
14 Mar -1.4 03:25:18 16° W 03:27:34 43° NNW 03:30:39 10° ENE visible
15 Mar -1.3 02:28:33 48° NNE 02:28:33 48° NNE 02:31:05 10° ENE visible
16 Mar -1.0 03:03:55 23° WNW 03:05:21 35° N 03:08:19 10° ENE visible
17 Mar 0.1 02:07:00 25° NE 02:07:00 25° NE 02:08:37 10° ENE visible
17 Mar -0.9 03:39:50 10° WNW 03:42:47 34° N 03:45:44 10° ENE visible
18 Mar -0.9 02:42:14 29° NNW 02:42:55 32° N 02:45:51 10° ENE visible
